Location: Unspecified
(43.3830°N, 0.0000°E)
Time: 14:31:52
(UTC+00:00)

Vanguard 2 - Pass Details

Date: 20 June 2019
Orbit: 554 x 2938 km, 32.9° (Epoch: 24 August)

Event Time Altitude Azimuth Distance (km) Brightness Sun altitude
Rises 15:47:32 0° 266° (W) 5,493 12.8 39.9°
Reaches altitude 10° 15:52:57 10° 248° (WSW) 4,921 12.7 38.9°
Maximum altitude 16:00:33 16° 216° (SW) 4,859 12.3 37.5°
Drops below altitude 10° 16:09:14 10° 185° (S) 5,687 12.1 36.0°
Sets 16:16:36 0° 168° (SSE) 6,778 12.2 34.6°
